Theta_e
316 316 316 316 317 316 316 316 317 317 318 319 319 320 321 322 321 314 302 309 314 327 329 311 314 311 308 306 307 305 295 291 295 299 300 306 303 314 327 326 330 332 340 343 345
315 315 316 316 316 316 316 316 317 317 318 319 319 320 321 321 312 305 316 328 330 333 315 306 305 306 301 302 305 300 294 297 302 304 304 304 304 304 317 323 324 335 343 344 345
315 315 315 315 315 316 315 316 316 317 318 319 319 319 320 319 303 303 330 327 331 335 317 309 307 303 297 297 300 298 298 303 306 307 309 306 308 305 311 313 330 333 337 342 343
314 314 315 314 315 315 315 315 316 317 318 318 318 319 320 313 288 308 341 340 330 323 314 307 303 297 294 294 299 296 303 303 306 308 308 307 308 306 309 317 331 339 339 341 342
314 314 314 314 314 315 315 315 316 316 317 317 318 319 313 301 300 310 336 338 325 317 309 305 301 298 296 296 297 296 301 305 306 307 305 309 310 304 305 319 336 340 338 337 338
314 314 314 314 314 315 315 315 315 316 316 317 318 319 305 294 307 312 317 321 316 311 308 303 301 301 297 297 296 299 301 304 306 304 307 306 307 303 305 323 330 335 335 335 334
313 313 313 313 314 314 315 315 314 315 317 318 319 316 304 298 308 310 312 308 309 309 305 305 305 300 299 296 300 299 296 300 303 302 303 308 304 302 306 318 323 327 328 328 328
312 312 312 313 313 314 315 314 314 316 318 319 320 312 298 309 310 308 308 310 310 309 308 307 304 300 297 298 299 294 292 290 298 302 304 304 301 311 310 315 321 320 323 323 322
312 311 311 312 313 314 313 313 315 317 321 321 311 304 296 314 311 312 310 308 310 309 306 310 302 298 299 294 290 290 288 289 295 302 303 302 297 306 307 318 319 319 320 320 316
311 311 311 312 313 313 312 313 318 319 319 318 313 299 303 306 312 313 310 311 306 305 303 301 297 294 291 289 286 286 287 289 292 298 300 300 297 301 306 313 316 317 316 315 318
311 310 311 311 312 312 308 303 299 300 304 303 303 302 306 314 316 307 310 306 306 302 294 297 291 288 291 292 293 292 291 291 295 299 298 298 297 301 303 304 307 307 313 313 315
311 311 311 311 311 311 305 301 300 302 296 305 306 307 309 311 307 310 308 300 299 294 295 293 289 294 296 295 294 292 290 291 294 298 297 297 298 302 303 303 303 309 307 308 307
310 309 310 310 310 306 303 301 303 305 296 302 305 304 305 307 303 305 305 300 297 293 293 290 294 300 297 295 294 292 290 291 291 296 295 295 293 299 303 306 309 307 311 310 309
309 309 309 310 304 302 299 303 302 305 292 299 302 305 306 305 301 308 307 302 296 294 294 293 298 298 297 295 296 291 296 296 295 291 287 294 286 291 299 304 305 308 306 311 308
309 309 309 309 299 300 305 301 302 304 281 304 302 308 305 302 304 305 308 302 296 296 296 294 297 297 295 296 298 295 299 297 295 290 287 289 285 289 293 296 302 305 305 308 310
308 309 309 306 300 304 304 302 302 292 286 298 303 300 300 301 303 304 304 304 303 296 295 296 300 300 298 301 300 300 296 293 290 288 282 289 287 286 289 296 298 301 305 306 308
308 308 307 308 298 303 301 299 290 285 298 294 295 298 298 295 298 300 299 296 293 289 289 293 295 299 302 297 299 295 288 282 281 281 282 289 287 287 295 298 300 301 303 306 307
306 306 307 309 306 303 300 293 283 292 291 297 295 298 294 295 295 297 296 294 296 294 291 288 287 295 300 297 294 293 290 283 279 279 285 291 286 293 298 300 301 303 305 306 305
304 301 303 304 302 301 295 285 284 289 293 292 294 291 290 291 292 292 291 291 293 294 287 289 290 300 303 301 297 294 289 293 286 285 283 286 292 297 299 300 302 303 303 304 302
296 298 301 303 300 300 291 289 289 293 294 293 286 290 285 287 287 289 291 291 290 295 296 289 286 299 302 303 301 294 296 289 285 279 278 284 287 291 295 298 301 301 301 302 303
296 295 300 304 302 294 284 286 291 295 295 291 288 287 286 285 287 286 288 290 292 292 294 289 287 291 296 295 292 294 292 293 290 287 283 279 285 293 296 299 300 301 302 301 302
291 290 300 300 288 286 284 289 294 292 294 292 291 289 286 287 285 287 285 288 292 293 288 289 285 282 287 295 298 298 290 292 287 287 288 285 287 300 302 304 304 304 304 303 304
290 291 299 296 282 282 287 291 292 291 290 289 288 289 288 284 280 286 286 292 292 290 288 288 285 278 282 287 290 287 290 290 291 294 288 282 285 302 303 301 302 304 306 307 308
291 285 288 288 287 285 284 287 287 292 290 290 288 289 285 283 283 282 283 289 290 290 296 291 282 282 278 281 283 282 285 288 289 283 288 291 291 297 299 299 300 301 307 308 308
289 285 287 281 285 286 285 287 287 286 289 289 285 287 283 278 280 280 284 285 287 291 287 285 279 282 283 285 283 282 282 284 283 287 286 289 290 296 298 299 300 302 305 308 309
287 285 287 285 287 286 286 284 286 288 286 285 284 287 284 279 281 280 282 280 281 284 280 283 276 280 279 283 283 280 282 283 285 288 288 287 289 298 300 302 301 302 302 302 308
290 291 287 286 284 283 283 286 287 288 289 290 287 285 284 286 287 286 285 284 284 281 279 278 276 274 274 280 280 275 280 283 284 286 288 283 286 293 294 299 301 302 301 301 305
Wind_Speed
22 22 22 21 20 20 20 19 18 17 15 14 12 11 11 10 12 2 10 12 10 16 8 4 5 6 1 4 3 2 1 4 6 4 7 6 9 7 15 14 8 7 15 24 30
22 22 22 22 21 20 21 19 17 17 15 13 12 9 8 8 3 10 15 17 19 12 3 6 5 4 2 3 3 5 4 8 7 4 10 6 6 4 9 16 1 11 21 26 28
22 23 23 23 23 20 20 19 18 16 15 12 10 7 6 5 5 12 4 28 21 12 8 6 5 5 5 1 5 4 8 3 12 9 9 10 11 1 9 4 17 29 28 29 27
25 25 24 24 23 22 21 20 18 17 14 12 9 6 3 2 6 5 8 16 25 9 5 7 3 4 4 5 6 5 11 9 14 9 12 13 7 4 6 8 9 23 29 29 25
26 26 25 24 24 22 21 20 18 16 13 11 7 6 3 1 14 11 9 6 11 9 11 7 7 6 5 5 3 6 11 16 14 15 9 13 12 6 8 12 17 21 23 26 25
25 26 25 25 23 22 21 19 17 14 12 7 6 5 2 5 7 8 7 7 5 10 9 8 7 9 5 7 7 4 6 12 13 11 13 11 11 2 2 8 10 23 24 21 21
26 27 26 26 25 23 22 20 17 13 11 5 8 4 4 18 4 8 6 5 6 9 6 7 9 4 4 5 7 5 7 10 13 5 9 18 18 9 7 15 17 17 16 14 12
26 27 27 27 26 24 22 22 20 14 7 7 9 3 10 7 6 10 10 7 4 7 10 9 6 4 5 5 9 4 3 6 7 5 7 9 19 30 6 14 19 12 13 13 8
28 27 27 27 27 25 23 24 18 5 5 10 4 3 12 11 4 12 10 10 11 8 6 11 6 7 5 6 4 2 7 5 8 6 7 9 6 20 7 15 16 16 15 12 9
30 31 29 28 26 25 24 18 2 9 5 6 5 4 7 5 4 6 9 13 7 7 5 5 4 5 3 4 10 3 3 5 6 6 4 9 7 8 3 10 14 18 15 12 16
31 31 32 30 27 22 13 3 7 3 2 7 8 8 11 2 5 3 6 6 6 3 5 5 3 7 9 7 8 4 6 8 7 9 4 9 8 10 7 9 11 7 12 13 16
30 31 33 31 29 24 2 4 4 8 11 14 21 24 21 9 11 21 2 5 2 6 3 4 8 8 8 7 8 7 8 19 8 11 6 11 12 14 8 8 9 16 10 9 8
32 31 32 33 33 3 4 5 8 7 4 10 8 9 9 13 14 18 8 7 7 5 6 8 7 8 8 11 10 11 12 9 13 10 6 6 8 17 9 9 26 14 17 13 16
32 32 30 33 5 6 5 11 9 2 4 9 5 7 6 8 5 11 10 10 4 12 9 9 7 12 13 10 10 15 10 14 16 5 10 9 10 7 7 18 24 25 19 20 15
33 31 29 12 4 4 9 9 8 6 3 3 3 1 2 10 1 3 6 5 11 11 8 12 7 9 11 13 8 14 16 18 8 6 1 3 4 10 2 8 20 22 18 21 20
36 33 22 2 1 9 9 9 5 6 5 9 6 13 12 9 8 15 4 4 4 6 6 11 6 8 9 10 7 8 7 0 3 5 1 13 8 6 6 9 6 7 14 17 19
37 34 12 1 5 7 7 6 5 3 11 10 10 11 6 9 7 13 18 18 11 7 7 5 10 9 9 11 10 3 5 4 3 2 10 4 2 9 7 9 9 9 10 16 16
38 27 3 4 7 6 5 6 1 8 7 10 12 11 8 17 10 10 13 10 20 18 4 4 11 5 5 10 10 8 9 7 8 5 13 3 5 15 10 10 9 10 12 11 13
26 6 4 6 7 3 7 6 2 7 7 9 6 7 7 12 12 11 12 14 15 15 6 6 7 14 13 7 6 11 5 10 5 2 1 5 8 7 2 8 8 15 11 12 8
5 5 6 15 5 6 6 5 4 8 7 6 7 9 10 14 11 11 8 15 10 15 9 9 9 7 10 7 4 3 5 4 2 6 7 3 4 13 9 12 10 12 12 8 7
4 5 7 17 5 7 5 3 4 11 8 7 6 5 5 6 5 5 11 13 16 15 10 11 2 8 10 5 12 10 8 6 3 5 8 3 9 4 2 7 11 7 5 6 7
5 4 6 8 8 3 3 7 7 6 7 6 6 6 3 4 4 4 8 6 13 11 6 6 3 5 8 18 11 2 13 9 3 7 3 3 9 10 17 17 19 7 4 9 8
5 4 6 7 6 4 5 5 4 6 6 5 5 4 3 4 4 4 6 5 12 12 5 7 4 8 12 5 12 9 19 19 10 2 3 2 6 12 16 20 19 18 14 13 15
3 6 7 6 2 4 7 4 6 6 7 4 4 5 4 4 2 5 5 7 10 8 13 5 2 2 3 4 9 10 16 15 10 3 2 10 10 12 9 12 16 18 18 13 14
4 2 1 5 6 9 0 5 3 5 4 6 4 4 2 4 5 2 2 3 4 3 2 4 5 4 8 12 15 16 15 15 16 12 5 5 7 2 3 5 5 8 12 13 9
3 4 5 5 5 7 7 4 6 4 1 3 2 4 4 2 6 14 2 1 4 2 1 3 5 5 12 12 14 18 19 13 15 15 10 6 4 6 6 4 8 7 10 9 10
4 4 4 5 5 3 0 7 10 6 5 1 3 4 6 4 5 6 4 5 7 5 5 5 4 2 14 10 14 14 10 7 13 15 8 6 1 9 9 7 2 4 8 11 3
Wind_Direction
349 345 342 338 335 334 331 328 323 318 312 308 307 308 308 307 304 177 240 224 197 245 321 338 224 251 211 240 204 111 21 232 227 233 267 351 17 96 190 178 232 197 155 150 146
348 344 341 337 335 332 328 325 323 317 311 306 303 306 308 314 285 254 230 213 223 235 211 209 244 195 241 230 217 152 179 233 210 251 291 284 5 302 155 198 88 115 136 135 149
346 342 339 336 334 330 326 324 322 315 310 304 298 299 304 309 334 248 282 213 207 187 219 199 232 146 201 259 222 215 228 268 273 276 285 311 312 327 132 299 173 157 153 153 154
344 341 337 335 333 329 325 323 319 315 311 301 291 285 299 247 263 249 324 220 210 188 195 199 205 157 210 223 240 253 265 264 277 276 285 277 313 323 197 187 248 165 157 151 163
339 337 336 332 332 327 324 319 315 312 308 296 272 260 148 168 250 269 357 52 162 163 201 178 188 157 206 205 249 206 255 263 264 268 255 273 272 239 246 194 176 165 164 166 170
337 333 333 332 329 326 322 316 309 306 303 279 243 208 167 255 244 266 172 149 173 173 195 163 202 195 272 219 170 245 252 266 264 251 257 267 279 169 209 134 178 170 177 177 173
337 332 333 331 328 326 320 311 307 303 299 236 198 220 251 240 222 356 126 193 171 181 206 197 209 139 167 297 246 241 281 287 265 242 229 273 276 211 166 177 184 191 176 178 172
337 332 333 331 327 325 320 311 304 298 272 185 181 230 249 252 245 255 259 281 252 250 206 219 194 205 154 263 336 342 174 256 271 236 230 185 250 268 132 155 180 191 184 181 143
336 332 332 330 327 324 318 310 304 268 170 157 144 169 266 299 178 227 173 211 232 243 241 231 130 210 294 209 331 308 241 257 303 214 230 161 221 258 161 157 186 187 187 185 126
337 333 331 329 328 324 322 310 80 110 145 203 262 17 271 257 254 188 174 197 196 214 246 199 166 197 29 89 226 262 275 282 249 273 197 255 239 260 291 137 196 191 186 175 159
337 334 331 328 327 325 337 21 7 1 207 203 214 233 286 253 335 304 232 171 183 140 204 222 147 212 232 218 195 235 255 260 260 264 254 248 234 249 201 183 176 216 204 184 174
336 334 331 328 324 323 156 38 316 252 298 222 243 237 246 279 299 291 265 153 176 227 171 326 233 227 225 231 243 243 247 263 286 259 176 262 261 273 225 185 184 194 221 219 138
335 335 333 328 319 360 294 326 308 3 290 291 234 251 217 204 239 256 167 198 184 225 226 194 232 227 220 244 242 246 237 259 242 272 231 214 267 255 231 168 239 203 207 199 167
334 334 334 331 10 327 319 314 328 85 9 279 221 253 150 176 240 226 202 167 174 207 226 234 229 237 248 243 225 254 242 238 246 234 251 149 259 270 240 218 210 220 196 204 182
333 334 333 335 282 345 276 313 320 58 352 313 61 93 126 164 179 265 169 102 199 209 154 239 238 260 258 248 241 250 253 236 201 192 165 234 115 258 194 243 225 220 190 196 191
332 331 337 114 255 242 300 314 51 42 267 356 32 353 3 351 0 346 237 134 203 188 229 231 214 217 236 261 251 265 272 75 75 113 28 251 174 245 213 221 261 225 201 194 189
333 327 325 254 268 303 322 31 34 138 334 356 348 327 351 345 24 16 17 48 22 317 238 235 233 244 252 272 282 225 68 283 318 6 223 240 202 218 233 238 223 251 241 205 200
333 320 231 227 264 324 37 45 31 357 10 350 329 313 61 16 41 26 43 38 25 12 305 301 268 198 222 198 241 234 168 174 213 198 260 106 218 262 220 244 247 235 250 240 205
333 326 334 281 295 70 64 53 44 338 3 342 330 18 8 17 353 20 74 13 39 358 12 343 286 323 308 296 163 273 208 196 162 237 35 208 277 283 353 314 270 259 225 230 210
337 329 294 319 325 70 71 81 62 24 359 28 31 30 21 6 14 10 58 27 10 357 347 343 296 304 333 331 355 215 243 228 347 178 241 256 207 255 343 302 300 307 215 192 143
24 16 310 330 55 50 82 21 353 43 36 47 30 48 29 1 315 344 19 52 19 3 45 4 22 309 344 353 16 346 349 323 329 141 219 205 254 205 267 332 318 20 357 112 95
346 10 315 355 49 36 49 322 324 39 37 36 53 56 43 346 319 30 24 69 12 16 17 342 285 302 285 294 329 103 25 9 89 298 8 177 248 37 24 15 17 310 331 33 41
345 286 330 29 69 357 316 320 20 44 45 35 36 28 19 32 352 28 3 17 33 20 45 335 4 323 318 11 26 12 353 336 318 335 207 121 257 31 31 22 13 21 13 60 62
19 2 332 22 7 48 6 289 345 54 61 58 35 29 44 358 39 308 354 352 19 19 28 41 32 56 289 334 315 321 331 328 313 294 266 240 305 5 34 29 4 16 1 24 53
31 342 329 327 322 326 205 277 319 8 28 43 351 18 80 350 314 199 234 302 8 9 19 123 206 222 272 279 300 301 308 323 307 294 235 304 305 246 35 68 42 13 4 358 43
67 27 341 277 295 329 339 0 14 325 126 307 42 313 350 261 235 287 265 273 226 288 270 186 264 260 278 289 287 289 296 294 269 284 272 278 273 1 313 5 57 28 352 354 341
322 335 106 281 326 359 220 352 318 0 317 3 283 310 302 272 286 241 218 213 217 216 249 188 191 238 278 277 284 282 255 282 299 292 306 278 72 5 9 351 31 61 0 311 317